User: anonymous   Login
Location: Newark
(35.0033°N, 81.0878°W)
Time: 06:31:11
(UTC+00:00)
Language:

Envisat - Orbit

View from above orbital plane
View from above orbital plane
View from above satellite
View from above satellite

Ground track
Ground track

The orbit data is extracted from the following two-line orbital elements,

1 27386U 02009A   20335.74630543  .00000055  00000-0  31553-4 0  9993
2 27386  98.1399 334.0764 0001325  90.6379  82.7150 14.38002033982511
Epoch (UTC): 30 November 2020 17:54:40
Eccentricity: 0.0001325
inclination: 98.1399°
perigee height: 764 km
apogee height: 766 km
right ascension of ascending node: 334.0764°
argument of perigee: 90.6379°
revolutions per day: 14.38002033
mean anomaly at epoch: 82.7150°
orbit number at epoch: 98251

The dashed part of the orbit path shows where the satellite is in the earth's shadow,  

DLR